Location: Caltech
(34.1382°N, 118.1253°W)
Time: 04:14:23
(UTC-07:00)

Cosmos 1975 - Visible Passes

Search period start: 30 April 2016 00:00
Search period end: 10 May 2016 00:00
Orbit: 546 x 565 km, 82.5° (Epoch: 29 April)

Date Brightness Start Highest point End Pass type
(mag) Time Alt. Az. Time Alt. Az. Time Alt. Az.
30 Apr 5.9 22:58:34 10° N 22:58:45 11° N 22:58:45 11° N visible
01 May 5.7 22:55:56 10° N 22:56:23 13° N 22:56:23 13° N visible
02 May 5.6 22:53:19 10° N 22:54:02 15° N 22:54:02 15° N visible
03 May 5.5 22:50:43 10° N 22:51:42 17° N 22:51:42 17° N visible
04 May 5.3 22:48:07 10° N 22:49:22 19° N 22:49:22 19° N visible
05 May 5.1 22:45:33 10° N 22:47:03 22° N 22:47:03 22° N visible
06 May 5.0 22:42:59 10° N 22:44:45 25° NNW 22:44:45 25° NNW visible
07 May 4.8 22:40:27 10° NNW 22:42:28 28° NNW 22:42:28 28° NNW visible
08 May 4.6 22:37:54 10° NNW 22:40:11 31° NNW 22:40:11 31° NNW visible
09 May 4.5 22:35:24 10° NNW 22:37:56 33° NW 22:37:56 33° NW visible
